When you browse on this site, cookies collect data to enhance your experience and personalize the content and advertising you see.
Visit our Privacy Policy to learn more. By continuing to use the site, you agree to this use of cookies and data.
  • In Romania
  • List of Countries
  • For 7 days
  • Water Temperature
  • Weather Map
  • Weather Widgets
  • user-avatar
    Login

    Hourly Weather Arnieres-sur-Iton

    Today, 24 January, Friday

    Time Temperature Precipitation Wind Pressure Humidity
    00:00 0°C° 0 mm 1 mps 755 mmHg 84%
    01:00 0°C° 0 mm 1 mps 754 mmHg 83%
    02:00 0°C° 0 mm 1 mps 754 mmHg 82%
    03:00 0°C° 0 mm 1 mps 754 mmHg 81%
    04:00 0°C° 0 mm 1 mps 754 mmHg 80%
    05:00 0°C° 0 mm 1 mps 753 mmHg 80%
    06:00 -1°C° 0 mm 1 mps 753 mmHg 79%
    07:00 0°C° 0 mm 1 mps 753 mmHg 74%
    08:00 -2°C° 0 mm 2 mps 753 mmHg 69%
    09:00 -1°C° 0 mm 2 mps 753 mmHg 64%
    10:00 +3°C° 0 mm 1 mps 753 mmHg 62%
    11:00 +5°C° 0 mm 1 mps 753 mmHg 59%
    12:00 +6°C° 0 mm 1 mps 753 mmHg 57%
    13:00 +7°C° 0 mm 1 mps 753 mmHg 61%
    14:00 +7°C° 0 mm 1 mps 753 mmHg 66%
    15:00 +7°C° 0 mm 1 mps 752 mmHg 71%
    16:00 +6°C° 0 mm 1 mps 752 mmHg 75%
    17:00 +4°C° 0 mm 1 mps 752 mmHg 80%
    18:00 +2°C° 0 mm 2 mps 752 mmHg 85%
    19:00 +2°C° 0 mm 2 mps 752 mmHg 87%
    20:00 +2°C° 0 mm 2 mps 753 mmHg 89%
    21:00 +2°C° 0 mm 2 mps 753 mmHg 92%
    22:00 +2°C° 0 mm 2 mps 753 mmHg 92%
    23:00 +3°C° 0 mm 1 mps 753 mmHg 93%

    Tomorrow, 25 January, Saturday

    Time Temperature Precipitation Wind Pressure Humidity
    00:00 +3°C° 0 mm 1 mps 752 mmHg 93%
    01:00 +2°C° 0 mm 2 mps 752 mmHg 93%
    02:00 +2°C° 0 mm 2 mps 752 mmHg 94%
    03:00 +2°C° 0 mm 2 mps 751 mmHg 94%
    04:00 +2°C° 0 mm 2 mps 751 mmHg 94%
    05:00 +2°C° 0 mm 2 mps 751 mmHg 94%
    06:00 +3°C° 0 mm 1 mps 751 mmHg 94%
    07:00 +2°C° 0 mm 2 mps 751 mmHg 94%
    08:00 +3°C° 0 mm 2 mps 751 mmHg 94%
    09:00 +3°C° 0 mm 2 mps 752 mmHg 94%
    10:00 +4°C° 0 mm 2 mps 751 mmHg 91%
    11:00 +5°C° 0 mm 3 mps 751 mmHg 88%
    12:00 +7°C° 0 mm 3 mps 751 mmHg 84%
    13:00 +7°C° 0 mm 3 mps 750 mmHg 86%
    14:00 +8°C° 0 mm 2 mps 750 mmHg 87%
    15:00 +8°C° 0 mm 2 mps 750 mmHg 88%
    16:00 +7°C° 0 mm 2 mps 749 mmHg 90%
    17:00 +6°C° 0 mm 2 mps 749 mmHg 92%
    18:00 +5°C° 0 mm 2 mps 749 mmHg 93%
    19:00 +4°C° 0 mm 2 mps 749 mmHg 94%
    20:00 +4°C° 0 mm 2 mps 749 mmHg 94%
    21:00 +4°C° 0 mm 2 mps 749 mmHg 94%
    22:00 +4°C° 0 mm 2 mps 749 mmHg 93%
    23:00 +4°C° 0 mm 2 mps 749 mmHg 93%

    Day after tomorrow, 26 January, Sunday

    Time Temperature Precipitation Wind Pressure Humidity
    00:00 +4°C° 0 mm 2 mps 748 mmHg 93%
    01:00 +4°C° 0 mm 2 mps 748 mmHg 94%
    02:00 +4°C° 0 mm 2 mps 748 mmHg 94%
    03:00 +3°C° 0 mm 3 mps 748 mmHg 94%
    04:00 +3°C° 0 mm 3 mps 748 mmHg 95%
    05:00 +2°C° 0 mm 3 mps 747 mmHg 95%
    06:00 +2°C° 0 mm 3 mps 747 mmHg 95%
    07:00 +3°C° 0 mm 3 mps 748 mmHg 95%
    08:00 +3°C° 0 mm 3 mps 748 mmHg 95%
    09:00 +4°C° 0 mm 3 mps 748 mmHg 95%
    10:00 +5°C° 0 mm 4 mps 748 mmHg 91%
    11:00 +5°C° 0 mm 4 mps 748 mmHg 87%
    12:00 +6°C° 0 mm 4 mps 748 mmHg 84%
    13:00 +6°C° 0 mm 4 mps 748 mmHg 82%
    14:00 +7°C° 0 mm 5 mps 747 mmHg 80%
    15:00 +8°C° 0 mm 5 mps 747 mmHg 78%
    16:00 +7°C° 0 mm 5 mps 747 mmHg 81%
    17:00 +6°C° 0 mm 5 mps 747 mmHg 85%
    18:00 +5°C° 0 mm 5 mps 746 mmHg 88%
    19:00 +6°C° 0 mm 5 mps 746 mmHg 89%
    20:00 +5°C° 0 mm 6 mps 746 mmHg 90%
    21:00 +5°C° 0 mm 6 mps 746 mmHg 90%
    22:00 +7°C° 0 mm 6 mps 745 mmHg 90%
    23:00 +6°C° 0 mm 7 mps 745 mmHg 89%

    27 January, Monday

    Time Temperature Precipitation Wind Pressure Humidity
    00:00 +6°C° 0 mm 7 mps 744 mmHg 88%
    01:00 +6°C° 0.2 mm 8 mps 744 mmHg 87%
    02:00 +6°C° 0.2 mm 8 mps 743 mmHg 87%
    03:00 +7°C° 0.2 mm 9 mps 743 mmHg 86%
    04:00 +6°C° 0.2 mm 8 mps 743 mmHg 87%
    05:00 +7°C° 0.2 mm 6 mps 743 mmHg 87%
    06:00 +7°C° 0.2 mm 5 mps 743 mmHg 87%
    07:00 +7°C° 0 mm 5 mps 743 mmHg 87%
    08:00 +7°C° 0 mm 5 mps 743 mmHg 87%
    09:00 +6°C° 0 mm 5 mps 743 mmHg 86%
    10:00 +7°C° 0.2 mm 5 mps 743 mmHg 86%
    11:00 +7°C° 0.2 mm 5 mps 742 mmHg 86%
    12:00 +7°C° 0.2 mm 6 mps 742 mmHg 87%
    13:00 +7°C° 0.3 mm 6 mps 741 mmHg 87%
    14:00 +7°C° 0.3 mm 6 mps 740 mmHg 87%
    15:00 +7°C° 0.3 mm 6 mps 740 mmHg 88%
    16:00 +7°C° 0.9 mm 6 mps 739 mmHg 89%
    17:00 +7°C° 0.9 mm 5 mps 738 mmHg 90%
    18:00 +7°C° 0.9 mm 5 mps 738 mmHg 91%
    19:00 +6°C° 0.6 mm 5 mps 737 mmHg 92%
    20:00 +6°C° 0.6 mm 5 mps 736 mmHg 92%
    21:00 +6°C° 0.6 mm 5 mps 735 mmHg 93%
    22:00 +6°C° 2.6 mm 5 mps 734 mmHg 92%
    23:00 +5°C° 2.6 mm 6 mps 734 mmHg 90%

    28 January, Tuesday

    Time Temperature Precipitation Wind Pressure Humidity
    00:00 +5°C° 2.6 mm 6 mps 733 mmHg 88%
    01:00 +4°C° 0.1 mm 7 mps 734 mmHg 87%
    02:00 +4°C° 0.1 mm 7 mps 734 mmHg 86%
    03:00 +3°C° 0.1 mm 7 mps 734 mmHg 85%
    04:00 +3°C° 0 mm 7 mps 734 mmHg 85%
    05:00 +3°C° 0 mm 7 mps 735 mmHg 84%
    06:00 +3°C° 0 mm 7 mps 735 mmHg 84%
    07:00 +1°C° 0.4 mm 8 mps 735 mmHg 81%
    08:00 +1°C° 0.4 mm 8 mps 736 mmHg 78%
    09:00 +1°C° 0.4 mm 9 mps 737 mmHg 75%
    10:00 +2°C° 0 mm 9 mps 737 mmHg 72%
    11:00 +3°C° 0 mm 9 mps 738 mmHg 68%
    12:00 +3°C° 0 mm 9 mps 739 mmHg 65%
    13:00 +3°C° 0.1 mm 9 mps 738 mmHg 66%
    14:00 +3°C° 0.1 mm 9 mps 738 mmHg 67%
    15:00 +3°C° 0.1 mm 9 mps 738 mmHg 68%
    16:00 +4°C° 0.2 mm 8 mps 738 mmHg 72%
    17:00 +2°C° 0.2 mm 8 mps 738 mmHg 77%
    18:00 +2°C° 0.2 mm 8 mps 738 mmHg 82%
    19:00 +2°C° 1.1 mm 8 mps 738 mmHg 83%
    20:00 +2°C° 1.1 mm 9 mps 738 mmHg 84%
    21:00 +2°C° 1.1 mm 10 mps 738 mmHg 85%
    22:00 +2°C° 1.1 mm 9 mps 738 mmHg 86%
    23:00 +2°C° 1.1 mm 9 mps 738 mmHg 87%

    29 January, Wednesday

    Time Temperature Precipitation Wind Pressure Humidity
    00:00 +1°C° 1.1 mm 8 mps 739 mmHg 88%
    01:00 +1°C° 0.2 mm 8 mps 739 mmHg 88%
    02:00 +2°C° 0.2 mm 7 mps 740 mmHg 88%
    03:00 +2°C° 0.2 mm 7 mps 740 mmHg 87%
    04:00 +2°C° 0.2 mm 6 mps 741 mmHg 89%
    05:00 +1°C° 0.2 mm 6 mps 741 mmHg 90%
    06:00 +1°C° 0.2 mm 6 mps 741 mmHg 91%
    07:00 +2°C° 0.2 mm 6 mps 742 mmHg 90%
    08:00 +2°C° 0.2 mm 6 mps 742 mmHg 89%
    09:00 +2°C° 0.2 mm 6 mps 743 mmHg 88%
    10:00 +3°C° 0.1 mm 6 mps 743 mmHg 86%
    11:00 +4°C° 0.1 mm 7 mps 743 mmHg 84%
    12:00 +4°C° 0.1 mm 7 mps 743 mmHg 82%
    13:00 +5°C° 0 mm 8 mps 742 mmHg 79%
    14:00 +5°C° 0 mm 8 mps 742 mmHg 75%
    15:00 +6°C° 0 mm 8 mps 742 mmHg 72%
    16:00 +6°C° 0.1 mm 8 mps 742 mmHg 76%
    17:00 +5°C° 0.1 mm 9 mps 742 mmHg 80%
    18:00 +5°C° 0.1 mm 9 mps 742 mmHg 84%
    19:00 +5°C° 0.4 mm 8 mps 742 mmHg 86%
    20:00 +4°C° 0.4 mm 6 mps 743 mmHg 88%
    21:00 +5°C° 0.4 mm 5 mps 743 mmHg 90%
    22:00 +5°C° 0.3 mm 4 mps 744 mmHg 91%
    23:00 +5°C° 0.3 mm 3 mps 744 mmHg 92%
    Show more